Weather in Vyshniy Volochyok

Russia / Tver Oblast     57°35′03″N   34°33′31″E
temp.,
°C
wind,
m/s
gust,
m/s
humid.,
%
clouds,
%
prec.,
mm/h
press.,
hPa
HPBL,
m
13 may, thu
thu1300:00+13ene3109572 2.0 1018337
03:00+12ese4129613 2.0 1017530
06:00+11sse499317 0.0 1017598
09:00+13sse35690 0.0 1018713
12:00+17se35464 0.0 10171421
15:00+18se574441 0.0 10152004
18:00+14sse496694 0.0 1013644
21:00+12sse2983100 0.1 1013342
14 may, fri
fri1400:00+9sse311940 0.0 1013366
03:00+7sse299815 0.0 1014242
06:00+8sse39915 0.0 1015305
09:00+14sse476415 0.0 1015797
12:00+17sse464990 0.0 10141473
15:00+19sse4647100 0.0 10141756
18:00+17se366479 0.3 1012901
21:00+13e2289100 0.4 101131
15 may, sat
sat1500:00+11ese2997100 0.0 1010225
03:00+12e389993 0.2 1008257
06:00+13ese3697100 1.1 1007445
09:00+15sse3992100 2.2 1006557
12:00+20ssw486450 0.0 10061212
15:00+22s574638 0.1 10052351
18:00+19s366763 0.1 10051070
21:00+14s3991100 1.0 1005307
16 may, sun
sun1600:00+12ssw389887 1.9 1006243
03:00+12wsw259876 3.4 1008193
06:00+12sw2697100 0.4 1010243
09:00+15w238395 0.4 1011525
12:00+20wnw225341 0.0 10121547
15:00+19w1259100 0.2 1012615
18:00+18ese117155 0.4 101224
21:00+14se228312 0.4 101321
17 may, mon
mon1700:00+12sse239410 0.0 101456
03:00+11sse2296100 0.0 101531
06:00+12se2693100 0.0 1015159
09:00+17se3675100 0.0 1015493
12:00+21sse4659100 0.0 10141233
15:00+23se4648100 0.0 10121984
18:00+21ese4963100 0.0 1011899
21:00+16ese41593100 3.3 1009536